Location: Courçay
(47.2523°N, 0.8761°E)
Time: 20:33:09
(UTC+00:00)

Resurs 01 Rocket - Pass Details

Date: 18 November 2025
Orbit: 626 x 637 km, 97.7° (Epoch: 10 December)

Event Time Altitude Azimuth Distance (km) Brightness Sun altitude
Exits shadow 19:07:35 17° 346° (NNW) 1,606 3.8 -28.6°
Drops below altitude 10° 19:08:39 10° 346° (NNW) 2,035 4.4 -28.8°
Sets 19:10:52 0° 347° (NNW) 2,948 5.2 -29.1°
